Weather History for EGGP - January, 2013

Change the Weather History Date:

Tuesday, January 29, 2013

  Actual Average Record
Temperature  
Mean Temperature 50 °F -  
Max Temperature 55 °F 45 °F 113 °F (1998)
Min Temperature 44 °F 36 °F 24 °F (2011)
Degree Days  
Heating Degree Days 16    
Moisture  
Dew Point 45 °F    
Average Humidity 81    
Maximum Humidity 94    
Minimum Humidity 66    
Precipitation  
Precipitation 0.00 in - - ()
Sea Level Pressure  
Sea Level Pressure 29.41 in    
Wind  
Wind Speed 18 mph ()    
Max Wind Speed 31 mph    
Max Gust Speed 44 mph    
Visibility 6.1 miles    
Events Rain    
Averages and records for this station are not official NWS values.
T = Trace of Precipitation, MM = Missing Value Source: Averaged Metar Reports

Daily Weather History Graph

Daily Weather History Graph

Search for Another Location

Airport or City:

Trip Planner

Search our weather history database for the weather conditions in past years. The results will help you decide how hot, cold, wet, or windy it might be!

Date:

Astronomy

Jan. 29, 2013 Rise Set
Actual Time 8:00 AM GMT 4:49 PM GMT
Civil Twilight 7:22 AM GMT 5:27 PM GMT
Nautical Twilight 6:39 AM GMT 6:09 PM GMT
Astronomical Twilight 5:59 AM GMT 6:50 PM GMT
Moon 8:02 PM GMT (1/29) 8:22 AM GMT (1/29)
Length of Visible Light 10h 05m
Length of Day
8h 48m
Waning Gibbous, 95% of the Moon is Illuminated
Jan 29
Waning Gibbous
Feb 3
Last Quarter
Feb 10
New
Feb 17
First Quarter
Feb 25
Full

Hourly Weather History & Observations

Time (GMT) Temp. Windchill Dew Point Humidity Pressure Visibility Wind Dir Wind Speed Gust Speed Precip Events Conditions
12:20 AM 50.0 °F - 39.2 °F 66% 29.39 in 6.2 mi WSW 31.1 mph - N/A   Scattered Clouds
12:50 AM 48.2 °F - 39.2 °F 71% 29.39 in 6.2 mi WSW 28.8 mph - N/A   Scattered Clouds
1:20 AM 50.0 °F - 41.0 °F 71% 29.42 in 6.2 mi WSW 28.8 mph - N/A   Scattered Clouds
1:50 AM 48.2 °F - 41.0 °F 76% 29.44 in 6.2 mi WSW 27.6 mph - N/A   Scattered Clouds
2:20 AM 48.2 °F - 41.0 °F 76% 29.44 in 6.2 mi West 24.2 mph - N/A   Mostly Cloudy
2:50 AM 48.2 °F - 41.0 °F 76% 29.47 in 6.2 mi WSW 18.4 mph - N/A   Mostly Cloudy
3:20 AM 48.2 °F - 41.0 °F 76% 29.50 in 6.2 mi WSW 16.1 mph - N/A   Mostly Cloudy
3:50 AM 48.2 °F - 41.0 °F 76% 29.47 in 6.2 mi SW 11.5 mph - N/A   Mostly Cloudy
4:20 AM 48.2 °F - 41.0 °F 76% 29.47 in 6.2 mi SW 12.7 mph - N/A   Mostly Cloudy
4:50 AM 48.2 °F - 41.0 °F 76% 29.50 in 6.2 mi SW 12.7 mph - N/A   Scattered Clouds
5:20 AM 48.2 °F - 41.0 °F 76% 29.53 in 6.2 mi South 11.5 mph - N/A   Partly Cloudy
5:50 AM 48.2 °F - 41.0 °F 76% 29.53 in 6.2 mi SW 12.7 mph - N/A   Partly Cloudy
6:20 AM 46.4 °F 41.1 °F 41.0 °F 81% 29.50 in 6.2 mi SW 11.5 mph - N/A   Partly Cloudy
6:50 AM 46.4 °F 42.4 °F 41.0 °F 81% 29.50 in 6.2 mi SSW 8.1 mph - N/A   Partly Cloudy
7:20 AM 46.4 °F 41.1 °F 41.0 °F 81% 29.50 in 6.2 mi SSW 11.5 mph - N/A   Partly Cloudy
7:50 AM 46.4 °F 41.1 °F 41.0 °F 81% 29.50 in 5.0 mi South 11.5 mph - N/A   Partly Cloudy
8:20 AM 44.6 °F 38.8 °F 41.0 °F 87% 29.47 in 5.0 mi South 11.5 mph - N/A   Partly Cloudy
8:50 AM 44.6 °F 38.4 °F 41.0 °F 87% 29.47 in 5.6 mi SSW 12.7 mph - N/A   Partly Cloudy
9:20 AM 46.4 °F 41.5 °F 42.8 °F 87% 29.44 in 5.6 mi South 10.4 mph - N/A   Partly Cloudy
9:50 AM 46.4 °F 41.5 °F 42.8 °F 87% 29.44 in 5.6 mi South 10.4 mph - N/A   Partly Cloudy
10:20 AM 46.4 °F 40.7 °F 42.8 °F 87% 29.44 in 5.6 mi SSE 12.7 mph - N/A Rain Light Rain
10:50 AM 48.2 °F - 44.6 °F 87% 29.44 in 6.2 mi SSE 10.4 mph - N/A   Scattered Clouds
11:20 AM 48.2 °F - 44.6 °F 87% 29.42 in 6.2 mi SSE 9.2 mph - N/A   Scattered Clouds
11:50 AM 48.2 °F - 46.4 °F 93% 29.42 in 6.2 mi South 13.8 mph - N/A   Scattered Clouds
12:20 PM 50.0 °F - 46.4 °F 87% 29.39 in 6.2 mi South 19.6 mph - N/A   Scattered Clouds
12:50 PM 50.0 °F - 48.2 °F 94% 29.39 in 5.0 mi South 17.3 mph - N/A   Mostly Cloudy
1:20 PM 51.8 °F - 48.2 °F 88% 29.36 in 6.2 mi South 18.4 mph - N/A   Mostly Cloudy
1:50 PM 53.6 °F - 50.0 °F 88% 29.36 in 6.2 mi South 17.3 mph - N/A   Mostly Cloudy
2:20 PM 55.4 °F - 50.0 °F 82% 29.33 in 6.2 mi South 16.1 mph - N/A   Mostly Cloudy
2:50 PM 53.6 °F - 50.0 °F 88% 29.33 in 6.2 mi South 12.7 mph 25.3 mph N/A   Mostly Cloudy
3:20 PM 55.4 °F - 50.0 °F 82% 29.33 in 6.2 mi South 15.0 mph - N/A   Mostly Cloudy
3:50 PM 55.4 °F - 50.0 °F 82% 29.30 in 6.2 mi SSW 19.6 mph - N/A Rain Light Rain Showers
4:20 PM 55.4 °F - 50.0 °F 82% 29.30 in 6.2 mi South 20.7 mph - N/A Rain Light Rain
4:50 PM 55.4 °F - 50.0 °F 82% 29.30 in 6.2 mi SSW 26.5 mph - N/A Rain Light Rain
5:20 PM 55.4 °F - 50.0 °F 82% 29.30 in 6.2 mi SW 26.5 mph 38.0 mph N/A Rain Light Rain
5:50 PM 55.4 °F - 51.8 °F 88% 29.30 in 6.2 mi SW 26.5 mph 40.3 mph N/A Rain Light Rain
6:20 PM 55.4 °F - 50.0 °F 82% 29.33 in 6.2 mi WSW 31.1 mph 43.7 mph N/A Rain Light Rain
6:50 PM 55.4 °F - 50.0 °F 82% 29.33 in 6.2 mi WSW 27.6 mph 39.1 mph N/A   Scattered Clouds
7:20 PM 53.6 °F - 48.2 °F 82% 29.33 in 6.2 mi WSW 23.0 mph - N/A Rain Light Rain Showers
7:50 PM 51.8 °F - 46.4 °F 82% 29.36 in 6.2 mi WSW 24.2 mph 35.7 mph N/A   Scattered Clouds
8:20 PM 51.8 °F - 46.4 °F 82% 29.36 in 6.2 mi WSW 18.4 mph - N/A   Scattered Clouds
8:50 PM 50.0 °F - 46.4 °F 87% 29.36 in 6.2 mi SW 15.0 mph - N/A   Partly Cloudy
9:20 PM 51.8 °F - 44.6 °F 76% 29.36 in 6.2 mi SW 13.8 mph - N/A   Partly Cloudy
9:50 PM 50.0 °F - 44.6 °F 82% 29.39 in 6.2 mi SW 17.3 mph - N/A   Partly Cloudy
10:20 PM 50.0 °F - 44.6 °F 82% 29.39 in 6.2 mi SW 15.0 mph - N/A   Partly Cloudy
10:50 PM 50.0 °F - 42.8 °F 76% 29.39 in 6.2 mi SW 19.6 mph - N/A   Partly Cloudy
11:20 PM 50.0 °F - 42.8 °F 76% 29.39 in 6.2 mi SW 16.1 mph - N/A   Partly Cloudy
11:50 PM 50.0 °F - 42.8 °F 76% 29.39 in 6.2 mi SW 13.8 mph - N/A   Partly Cloudy